Location: La Sioule Rivi�re
(46.3664°N, 3.3197°E)
Time: 11:50:55
(UTC+00:00)

ATLAS 5 CENTAUR R/B - Pass Details

Date: 29 October 2020
Orbit: 531 x 1127 km, 63.4° (Epoch: 22 November)

Event Time Altitude Azimuth Distance (km) Brightness Sun altitude
Rises 18:09:11 0° 304° (WNW) 2,922 5.9 -16.6°
Reaches altitude 10° 18:13:06 10° 339° (NNW) 2,148 4.6 -17.3°
Maximum altitude 18:14:43 11° 358° (N) 2,109 4.3 -17.5°
Drops below altitude 10° 18:16:24 10° 17° (NNE) 2,271 4.3 -17.8°
Enters shadow 18:17:30 - 28° (NNE) 2,470 4.4 -18.0°
